Jackson, TN

12:20 PM CST on November 21, 2019 (GMT -0600)
McKellar-Sipes Regional

Weather History for KMKL - September, 2019

Change the Weather History Date:

Sunday, September 8, 2019

  Actual Average Record
Temperature  
Mean Temperature 74 °F 74 °F  
Max Temperature 91 °F 87 °F 101 °F (1980)
Min Temperature 58 °F 62 °F 47 °F (2011)
Degree Days  
Heating Degree Days 0 0  
Month to date heating degree days 0 0  
Since 1 July heating degree days 0 0  
Cooling Degree Days 10 9  
Month to date cooling degree days 97 83  
Year to date cooling degree days 1558 1506  
Growing Degree Days 24 (Base 50)    
Moisture  
Dew Point 63 °F    
Average Humidity 81    
Maximum Humidity 100    
Minimum Humidity 39    
Precipitation  
Precipitation 0.00 in 0.09 in 1.37 in (2018)
Month to date precipitation 0.00 0.74  
Year to date precipitation 46.71 36.61  
Sea Level Pressure  
Sea Level Pressure 30.03 in    
Wind  
Wind Speed 1 mph ()    
Max Wind Speed 13 mph    
Max Gust Speed 15 mph    
Visibility 7.0 miles    
Events Fog    
T = Trace of Precipitation, MM = Missing Value Source: Averaged Metar Reports

Daily Weather History Graph

Daily Weather History Graph

Search for Another Location

Airport or City:

Astronomy

Sep. 08, 2019 Rise Set
Actual Time 6:32 AM CDT 7:13 PM CDT
Civil Twilight 6:07 AM CDT 7:38 PM CDT
Nautical Twilight 5:36 AM CDT 8:09 PM CDT
Astronomical Twilight 5:05 AM CDT 8:40 PM CDT
Moon 4:11 PM CDT (9/8) 1:22 AM CDT (9/8)
Length of Visible Light 13h 31m
Length of Day
12h 40m
Waxing Gibbous, 75% of the Moon is Illuminated
Sep 8
Waxing Gibbous
Sep 13
Full
Sep 21
Last Quarter
Sep 28
New
Oct 5
First Quarter

Hourly Weather History & Observations

Time (CDT) Temp. Heat Index Dew Point Humidity Pressure Visibility Wind Dir Wind Speed Gust Speed Precip Events Conditions
12:18 AM 64.0 °F - 62.1 °F 93% 30.02 in 1.8 mi Calm Calm - N/A   Clear
12:28 AM 64.0 °F - 62.1 °F 93% 30.02 in 3.0 mi Calm Calm - N/A   Clear
12:53 AM 63.0 °F - 62.1 °F 97% 30.01 in 6.0 mi Calm Calm - N/A   Clear
1:53 AM 61.0 °F - 60.1 °F 97% 29.99 in 8.0 mi Calm Calm - N/A   Clear
2:53 AM 62.1 °F - 61.0 °F 96% 29.99 in 6.0 mi Calm Calm - N/A   Clear
3:38 AM 61.0 °F - 60.1 °F 97% 30.01 in 1.5 mi Calm Calm - N/A   Clear
3:53 AM 61.0 °F - 59.0 °F 93% 30.00 in 1.5 mi Calm Calm - N/A   Clear
4:11 AM 61.0 °F - 60.1 °F 97% 30.02 in 9.0 mi Calm Calm - N/A   Clear
4:41 AM 60.1 °F - 59.0 °F 96% 30.03 in 1.2 mi Calm Calm - N/A   Partly Cloudy
4:43 AM 60.1 °F - 59.0 °F 96% 30.03 in 0.8 mi Calm Calm - N/A   Mist
4:53 AM 59.0 °F - 59.0 °F 100% 30.02 in 0.5 mi Calm Calm - N/A Fog Fog
5:11 AM 59.0 °F - 57.9 °F 96% 30.03 in 2.5 mi Calm Calm - N/A   Clear
5:18 AM 59.0 °F - 57.9 °F 96% 30.03 in 8.0 mi Calm Calm - N/A   Clear
5:53 AM 60.1 °F - 59.0 °F 96% 30.01 in 8.0 mi Calm Calm - N/A   Clear
6:19 AM 59.0 °F - 57.9 °F 96% 30.03 in 1.8 mi Calm Calm - N/A   Clear
6:29 AM 60.1 °F - 57.9 °F 93% 30.03 in 3.0 mi Calm Calm - N/A   Clear
6:53 AM 59.0 °F - 57.9 °F 96% 30.02 in 7.0 mi Calm Calm - N/A   Clear
7:53 AM 68.0 °F - 64.0 °F 87% 30.02 in 10.0 mi Calm Calm - N/A   Clear
8:53 AM 71.1 °F - 66.0 °F 84% 30.03 in 10.0 mi SSE 3.5 mph - N/A   Clear
9:53 AM 77.0 °F - 66.0 °F 69% 30.04 in 10.0 mi Variable 3.5 mph - N/A   Clear
10:53 AM 82.9 °F 85.0 °F 66.0 °F 56% 30.07 in 10.0 mi Variable 4.6 mph - N/A   Clear
11:53 AM 86.0 °F 87.6 °F 64.9 °F 49% 30.07 in 10.0 mi SE 4.6 mph - N/A   Scattered Clouds
12:53 PM 89.1 °F 90.3 °F 64.0 °F 43% 30.06 in 10.0 mi NNW 4.6 mph - N/A   Clear
1:53 PM 90.0 °F 91.3 °F 64.0 °F 42% 30.05 in 10.0 mi NNW 8.1 mph - N/A   Mostly Cloudy
2:53 PM 90.0 °F 90.3 °F 62.1 °F 39% 30.04 in 10.0 mi NE 9.2 mph - N/A   Clear
3:53 PM 90.0 °F 91.7 °F 64.9 °F 43% 30.03 in 10.0 mi Variable 5.8 mph - N/A   Clear
4:53 PM 89.1 °F 91.3 °F 66.0 °F 46% 30.01 in 10.0 mi ESE 5.8 mph - N/A   Clear
5:53 PM 87.1 °F 90.6 °F 68.0 °F 53% 30.01 in 10.0 mi Calm Calm - N/A   Clear
6:53 PM 82.0 °F 85.5 °F 69.1 °F 65% 30.01 in 10.0 mi SSE 4.6 mph - N/A   Clear
7:53 PM 75.0 °F - 70.0 °F 84% 30.00 in 10.0 mi South 4.6 mph - N/A   Clear
8:53 PM 73.0 °F - 68.0 °F 84% 30.03 in 10.0 mi NE 3.5 mph - N/A   Clear
9:53 PM 71.1 °F - 68.0 °F 90% 30.04 in 10.0 mi Calm Calm - N/A   Clear
10:53 PM 70.0 °F - 68.0 °F 93% 30.04 in 10.0 mi Calm Calm - N/A   Clear
11:53 PM 69.1 °F - 66.9 °F 93% 30.04 in 10.0 mi Calm Calm - N/A   Clear